MDT,Max TemperatureF,Mean TemperatureF,Min TemperatureF,Max Dew PointF,MeanDew PointF,Min DewpointF,Max Humidity, Mean Humidity, Min Humidity, Max Sea Level PressureIn, Mean Sea Level PressureIn, Min Sea Level PressureIn, Max VisibilityMiles, Mean VisibilityMiles, Min VisibilityMiles, Max Wind SpeedMPH, Mean Wind SpeedMPH, Max Gust SpeedMPH,PrecipitationIn, CloudCover, Events, WindDirDegrees
2013-9-1,76,60,44,44,40,33,71,47,23,30.10,30.07,30.04,10,10,10,14,4,18,0.00,0,,273
2013-9-2,82,65,48,53,46,40,77,53,28,30.06,29.99,29.92,10,10,10,12,4,18,0.00,0,,34
2013-9-3,87,74,61,57,53,50,73,52,30,29.98,29.92,29.88,10,10,10,16,6,22,0.00,1,,342
2013-9-4,85,72,58,63,57,52,100,70,40,30.29,30.06,29.97,10,9,2,22,6,30,0.19,2,Rain,32
2013-9-5,85,71,57,61,57,55,100,69,37,30.11,30.04,29.97,10,9,4,10,4,15,0.00,0,,82
2013-9-6,85,72,59,57,53,47,73,54,34,30.04,29.96,29.92,10,10,10,15,4,25,T,2,Rain,333
2013-9-7,84,70,56,60,54,49,80,55,29,30.02,29.97,29.90,10,10,10,13,5,22,T,0,,122
2013-9-8,81,69,57,62,59,55,100,73,45,30.12,29.97,29.76,10,6,0,32,7,46,0.64,6,Fog-Rain,41
2013-9-9,70,61,52,57,55,51,93,78,63,30.03,29.86,29.73,10,10,10,10,4,15,0.00,2,,267
2013-9-10,66,56,46,51,48,42,93,75,56,30.15,30.06,29.97,10,10,10,12,3,17,0.00,1,,335
2013-9-11,74,60,45,48,44,42,93,64,35,30.23,30.20,30.16,10,10,10,10,3,14,0.00,1,,341
2013-9-12,69,58,46,50,44,39,77,63,48,30.29,30.24,30.17,10,10,10,14,6,17,0.00,0,,89
2013-9-13,58,53,48,54,52,44,100,83,66,30.29,30.08,29.87,10,5,0,12,5,20,0.10,7,Fog-Rain,164
2013-9-14,72,63,54,56,53,48,100,72,44,30.11,29.87,29.78,10,8,0,18,9,26,0.01,5,Fog-Rain,283
2013-9-15,57,51,45,52,47,43,93,80,66,30.34,30.22,29.97,10,9,2,15,7,21,T,7,Rain,53
2013-9-16,60,54,47,52,49,46,100,89,77,30.31,30.11,29.94,10,9,0,14,6,23,0.00,7,Fog,182
2013-9-17,82,64,46,53,47,40,100,62,23,30.03,29.82,29.63,10,8,0,16,4,23,T,2,Fog,258
2013-9-18,77,64,51,47,43,40,77,54,31,29.76,29.64,29.59,10,10,10,18,7,28,0.00,0,,268
2013-9-19,58,47,35,42,33,30,73,55,36,30.13,29.99,29.79,10,10,10,23,7,29,0.00,1,,306
2013-9-20,68,51,33,35,30,23,89,55,20,30.16,30.05,29.96,10,10,10,14,5,17,0.00,0,,287
2013-9-21,80,59,37,34,27,22,70,41,11,29.94,29.75,29.61,10,10,10,21,6,30,0.00,0,,263
2013-9-22,80,65,50,49,38,28,72,48,23,29.60,29.53,29.44,10,10,10,22,7,33,T,2,Rain,259
2013-9-23,56,47,38,49,43,36,93,72,51,29.98,29.68,29.40,10,9,5,18,7,28,0.20,5,Rain,330
2013-9-24,66,50,34,39,34,30,89,59,28,30.05,29.93,29.75,10,10,10,14,6,21,0.00,0,,218
2013-9-25,74,58,42,44,37,27,71,45,19,29.73,29.54,29.42,10,10,10,17,7,25,0.00,1,,216
2013-9-26,67,55,42,44,38,31,80,54,28,29.90,29.68,29.49,10,10,10,17,8,22,0.00,2,,348
2013-9-27,43,38,32,38,35,31,100,88,76,29.95,29.86,29.72,10,9,2,13,5,17,0.16,8,Rain,345
2013-9-28,56,43,30,34,30,27,92,64,35,30.01,29.97,29.92,10,10,10,21,10,31,0.00,0,,265
2013-9-29,68,57,45,35,31,29,65,44,22,29.92,29.76,29.65,10,10,10,24,12,36,0.00,0,,256
2013-9-30,73,59,44,40,33,29,71,46,20,29.77,29.64,29.52,10,10,10,30,11,48,0.00,1,,264